Location: Cambridge (historical)
(38.6883°N, 119.0140°W)
Time: 11:28:14
(UTC+00:00)

XW-2D - Pass Details

Date: 26 September 2021
Orbit: 503 x 524 km, 97.5° (Epoch: 18 October)

Event Time Altitude Azimuth Distance (km) Brightness Sun altitude
Rises 12:50:44 0° 34° (NE) 2,623 ? -11.9°
Reaches altitude 10° 12:53:50 10° 63° (ENE) 1,727 ? -11.3°
Maximum altitude 12:55:38 13° 92° (E) 1,532 ? -11.0°
Drops below altitude 10° 12:57:26 10° 122° (ESE) 1,715 ? -10.6°
Sets 13:00:29 0° 150° (SSE) 2,589 ? -10.0°
